#timestamp,LO_Frequency,Hit,StdDev 
1514970015.9,286047003.5,N
1514970035.7,286047000.0,N
1514970055.5,286047000.5,N
1514970075.4,286046998.2,N
1514970095.2,286047005.5,N
1514970115.0,286047004.0,N
1514970115.9,286047004.0,N
1514970135.8,286046999.4,N
1514970155.6,286046999.5,N
1514970175.4,286046995.2,N
1514970195.3,286046996.3,N
1514970215.1,286046990.2,N
1514970216.0,286046990.2,N
1514970235.8,286046996.3,N
1514970255.6,286046996.2,N
1514970275.5,286046995.4,N
1514970295.3,286046998.0,N
1514970315.1,286046995.0,N
1514970335.9,286046994.7,N
1514970355.7,286046993.1,N
1514970375.5,286046992.9,N
1514970395.4,286046993.2,N
1514970415.2,286046990.6,N
1514970435.0,286046991.4,N
1514970435.9,286046991.4,N
1514970455.8,286046989.2,N
1514970475.6,286046988.9,N
1514970495.4,286046991.3,N
1514970515.3,286046989.8,N
1514970535.1,286046985.9,N
1514970536.0,286046985.9,N
1514970555.8,286046986.6,N
1514970575.7,286046989.1,N
1514970595.5,286046990.9,N
1514970615.3,286046992.1,N
1514970635.1,286046992.8,N
1514970655.9,286046993.1,N
1514970675.7,286046993.7,N
1514970695.5,286046996.6,N
1514970715.4,286046997.7,N
1514970735.2,286046996.4,N
1514970755.0,286046992.7,N
1514970755.9,286046992.7,N
1514970775.8,286046987.7,Y
1514970795.6,286046995.0,P
1514970815.4,286046996.0,P
1514970835.3,286046995.6,N
1514970855.1,286046995.0,Y
1514970875.8,286047000.5,P
1514970895.7,286047003.2,N
1514970915.5,286047003.6,N
1514970935.3,286047000.4,N
1514970955.2,286047000.7,N
1514970975.9,286046999.7,N
1514970995.7,286047002.3,N
1514971015.6,286047001.2,N
1514971035.4,286046996.8,N
1514971055.2,286046999.4,N
1514971075.1,286047000.9,N
1514971076.0,286047000.9,N
1514971095.8,286047003.2,N
1514971115.6,286047003.3,N
1514971135.4,286047005.9,N
1514971155.3,286047005.1,N
1514971175.1,286047008.1,N
1514971195.9,286047009.4,Y
1514971215.7,286047003.4,P
1514971235.5,286047005.2,P
1514971255.3,286047006.1,P
1514971275.2,286047007.5,Y
1514971295.0,286047001.0,P
1514971295.9,286047001.0,N
1514971315.7,286047003.8,N
1514971335.6,286047007.4,Y
1514971355.4,286047004.9,P
1514971375.2,286047005.2,P
1514971395.1,286047005.4,P
1514971396.0,286047005.4,Y
1514971415.8,286047002.1,P
1514971435.7,286047001.0,N
1514971455.5,286046998.5,N
1514971475.3,286046995.3,N
1514971495.1,286046994.6,N
1514971515.9,286046996.8,N
1514971535.7,286046997.1,N
1514971555.5,286046998.3,N
1514971575.4,286047001.3,N
1514971595.2,286047007.2,N
1514971615.0,286047005.6,N
1514971615.9,286047005.6,N
1514971635.8,286047004.2,N
1514971655.6,286047005.1,N
1514971675.4,286047005.2,N
1514971695.3,286047004.9,N
1514971715.1,286047006.6,N
1514971716.0,286047006.6,N
1514971735.8,286047003.2,N
1514971755.6,286047002.5,N
1514971775.5,286047002.3,N
1514971795.3,286046999.8,N
1514971815.1,286047001.5,N
1514971835.9,286047001.8,N
1514971855.7,286047002.0,N
1514971875.5,286047001.9,N
1514971895.4,286047000.3,N
1514971915.2,286047002.1,N
1514971935.0,286047000.3,N
1514971935.9,286047000.3,N
1514971955.8,286047001.9,N
1514971975.6,286046999.1,N
1514971995.4,286046995.8,N
1514972015.3,286046995.2,N
1514972035.1,286046995.6,N
1514972036.0,286046995.6,N
1514972055.8,286047001.1,N
1514972075.6,286047000.5,N
1514972095.5,286046998.2,N
1514972115.3,286046996.9,N
1514972135.1,286046998.2,N
1514972155.9,286047001.1,N
1514972175.7,286046999.6,N
1514972195.5,286046997.1,N
1514972215.4,286046995.2,N
1514972235.2,286046997.6,N
1514972255.0,286046997.5,N
1514972255.9,286046997.5,N
1514972275.8,286046995.2,N
1514972295.6,286046994.2,N
1514972315.4,286046995.1,N
1514972335.3,286046999.5,N
1514972355.1,286046995.4,N
1514972356.0,286046995.4,N
1514972375.8,286046995.3,N
1514972395.7,286046996.4,N
1514972415.5,286046994.0,N
1514972435.3,286046992.5,Y
1514972455.2,286046991.9,P
1514972475.9,286046993.0,N
1514972495.7,286046992.7,N
1514972515.6,286046991.0,Y
1514972535.4,286046995.2,P
1514972555.2,286046995.2,P
1514972575.0,286046992.1,P
1514972576.0,286046992.1,Y
1514972595.8,286046997.3,P
1514972615.6,286046995.6,N
1514972635.5,286046996.0,P
1514972655.3,286046989.8,Y
1514972675.1,286046991.9,P
1514972695.9,286046994.8,N
1514972715.7,286046992.7,P
1514972735.5,286046993.1,Y
1514972755.4,286046995.2,P
1514972775.2,286046995.0,P
1514972795.0,286046994.1,P
1514972795.9,286046994.1,Y
1514972815.8,286046999.1,P
1514972835.6,286046995.0,N
1514972855.4,286046994.0,N
1514972875.3,286046991.7,Y
1514972895.1,286046993.4,P
1514972896.0,286046993.4,P
1514972915.8,286046996.1,P
1514972935.7,286046993.3,Y
1514972955.5,286046998.1,P
1514972975.3,286046996.6,N
1514972995.2,286047000.7,N
1514973015.9,286046996.8,N
1514973035.7,286046998.0,N
1514973055.6,286046993.4,Y
1514973075.4,286046996.1,P
1514973095.2,286046998.2,N
1514973115.1,286046998.6,N
1514973116.0,286046998.6,N
1514973135.8,286047000.1,N
1514973155.6,286046998.8,N
1514973175.4,286047000.0,N
1514973195.3,286047002.6,N
1514973215.1,286047000.9,N
1514973235.8,286047002.0,N
1514973255.7,286046999.9,N
1514973275.5,286047002.9,N
1514973295.3,286047003.4,N
1514973315.2,286047006.9,Y
1514973335.9,286047008.5,P
1514973355.7,286047006.7,N
1514973375.6,286047008.8,N
1514973395.4,286047006.3,N
1514973415.2,286047010.5,Y
1514973435.1,286047003.2,P
1514973436.0,286047003.2,N
1514973455.8,286047003.6,N
1514973475.6,286047004.0,Y
1514973495.5,286046998.1,P
1514973515.3,286046998.1,N
1514973535.1,286047000.6,N
1514973555.9,286047004.1,N
1514973575.7,286047002.3,N
1514973595.5,286047004.1,N
